owner,sensor,date,latitude,longitude,air_temperature,qcFlag 
COMPS,ioos:station:USF.COMPS:ARP:1,2014-12-01T00:00:00Z,28.4330,-82.6670,17.59,1111122 
COMPS,ioos:station:USF.COMPS:ARP:1,2014-12-01T00:06:00Z,28.4330,-82.6670,17.7,1111122 
COMPS,ioos:station:USF.COMPS:ARP:1,2014-12-01T00:12:00Z,28.4330,-82.6670,17.77,1111122 
COMPS,ioos:station:USF.COMPS:ARP:1,2014-12-01T00:18:00Z,28.4330,-82.6670,17.83,1111122 
COMPS,ioos:station:USF.COMPS:ARP:1,2014-12-01T00:24:00Z,28.4330,-82.6670,18.01,1111122 
COMPS,ioos:station:USF.COMPS:ARP:1,2014-12-01T00:30:00Z,28.4330,-82.6670,18.29,1111122 
COMPS,ioos:station:USF.COMPS:ARP:1,2014-12-01T00:36:00Z,28.4330,-82.6670,18.37,1111122 
COMPS,ioos:station:USF.COMPS:ARP:1,2014-12-01T00:42:00Z,28.4330,-82.6670,18.56,1111122 
COMPS,ioos:station:USF.COMPS:ARP:1,2014-12-01T00:48:00Z,28.4330,-82.6670,18.81,1111122 
COMPS,ioos:station:USF.COMPS:ARP:1,2014-12-01T00:54:00Z,28.4330,-82.6670,18.94,1111122 
COMPS,ioos:station:USF.COMPS:ARP:1,2014-12-01T01:00:00Z,28.4330,-82.6670,18.93,1111122 
COMPS,ioos:station:USF.COMPS:ARP:1,2014-12-01T01:06:00Z,28.4330,-82.6670,18.82,1111122 
COMPS,ioos:station:USF.COMPS:ARP:1,2014-12-01T01:12:00Z,28.4330,-82.6670,18.68,1111122 
COMPS,ioos:station:USF.COMPS:ARP:1,2014-12-01T01:18:00Z,28.4330,-82.6670,18.6,1111122 
COMPS,ioos:station:USF.COMPS:ARP:1,2014-12-01T01:24:00Z,28.4330,-82.6670,18.57,1111122 
COMPS,ioos:station:USF.COMPS:ARP:1,2014-12-01T01:30:00Z,28.4330,-82.6670,18.49,1111122 
COMPS,ioos:station:USF.COMPS:ARP:1,2014-12-01T01:36:00Z,28.4330,-82.6670,18.37,1111122 
COMPS,ioos:station:USF.COMPS:ARP:1,2014-12-01T01:42:00Z,28.4330,-82.6670,18.31,1111122 
COMPS,ioos:station:USF.COMPS:ARP:1,2014-12-01T01:48:00Z,28.4330,-82.6670,18.22,1111122 
COMPS,ioos:station:USF.COMPS:ARP:1,2014-12-01T01:54:00Z,28.4330,-82.6670,18.2,1111122 
COMPS,ioos:station:USF.COMPS:ARP:1,2014-12-01T02:00:00Z,28.4330,-82.6670,18.11,1111122 
COMPS,ioos:station:USF.COMPS:ARP:1,2014-12-01T02:06:00Z,28.4330,-82.6670,17.97,1111122 
COMPS,ioos:station:USF.COMPS:ARP:1,2014-12-01T02:12:00Z,28.4330,-82.6670,17.84,1111122 
COMPS,ioos:station:USF.COMPS:ARP:1,2014-12-01T02:18:00Z,28.4330,-82.6670,17.73,1111122 
COMPS,ioos:station:USF.COMPS:ARP:1,2014-12-01T02:24:00Z,28.4330,-82.6670,17.55,1111122 
COMPS,ioos:station:USF.COMPS:ARP:1,2014-12-01T02:30:00Z,28.4330,-82.6670,17.4,1111122 
COMPS,ioos:station:USF.COMPS:ARP:1,2014-12-01T02:36:00Z,28.4330,-82.6670,17.34,1111122 
COMPS,ioos:station:USF.COMPS:ARP:1,2014-12-01T02:42:00Z,28.4330,-82.6670,17.31,1111122 
COMPS,ioos:station:USF.COMPS:ARP:1,2014-12-01T02:48:00Z,28.4330,-82.6670,17.32,1111122 
COMPS,ioos:station:USF.COMPS:ARP:1,2014-12-01T02:54:00Z,28.4330,-82.6670,17.33,1111122 
COMPS,ioos:station:USF.COMPS:ARP:1,2014-12-01T03:00:00Z,28.4330,-82.6670,17.21,1111122 
COMPS,ioos:station:USF.COMPS:ARP:1,2014-12-01T03:06:00Z,28.4330,-82.6670,17.11,1111122 
COMPS,ioos:station:USF.COMPS:ARP:1,2014-12-01T03:12:00Z,28.4330,-82.6670,17.04,1111122 
COMPS,ioos:station:USF.COMPS:ARP:1,2014-12-01T03:18:00Z,28.4330,-82.6670,16.95,1111122 
COMPS,ioos:station:USF.COMPS:ARP:1,2014-12-01T03:24:00Z,28.4330,-82.6670,16.81,1111122 
COMPS,ioos:station:USF.COMPS:ARP:1,2014-12-01T03:30:00Z,28.4330,-82.6670,16.79,1111122 
COMPS,ioos:station:USF.COMPS:ARP:1,2014-12-01T03:36:00Z,28.4330,-82.6670,16.61,1111122 
COMPS,ioos:station:USF.COMPS:ARP:1,2014-12-01T03:42:00Z,28.4330,-82.6670,16.45,1111122 
COMPS,ioos:station:USF.COMPS:ARP:1,2014-12-01T03:48:00Z,28.4330,-82.6670,16.39,1111122 
COMPS,ioos:station:USF.COMPS:ARP:1,2014-12-01T03:54:00Z,28.4330,-82.6670,16.32,1111122 
COMPS,ioos:station:USF.COMPS:ARP:1,2014-12-01T04:00:00Z,28.4330,-82.6670,16.24,1111122 
COMPS,ioos:station:USF.COMPS:ARP:1,2014-12-01T04:06:00Z,28.4330,-82.6670,16.13,1111122 
COMPS,ioos:station:USF.COMPS:ARP:1,2014-12-01T04:12:00Z,28.4330,-82.6670,16.03,1111122 
COMPS,ioos:station:USF.COMPS:ARP:1,2014-12-01T04:18:00Z,28.4330,-82.6670,16.0,1111122 
COMPS,ioos:station:USF.COMPS:ARP:1,2014-12-01T04:24:00Z,28.4330,-82.6670,15.97,1111122 
COMPS,ioos:station:USF.COMPS:ARP:1,2014-12-01T04:30:00Z,28.4330,-82.6670,15.98,1111122 
COMPS,ioos:station:USF.COMPS:ARP:1,2014-12-01T04:36:00Z,28.4330,-82.6670,15.98,1111122 
COMPS,ioos:station:USF.COMPS:ARP:1,2014-12-01T04:42:00Z,28.4330,-82.6670,15.98,1111122 
COMPS,ioos:station:USF.COMPS:ARP:1,2014-12-01T04:48:00Z,28.4330,-82.6670,15.98,1111122 
COMPS,ioos:station:USF.COMPS:ARP:1,2014-12-01T04:54:00Z,28.4330,-82.6670,15.9,1111122 
COMPS,ioos:station:USF.COMPS:ARP:1,2014-12-01T05:00:00Z,28.4330,-82.6670,15.84,1111122 
COMPS,ioos:station:USF.COMPS:ARP:1,2014-12-01T05:06:00Z,28.4330,-82.6670,15.82,1111122 
COMPS,ioos:station:USF.COMPS:ARP:1,2014-12-01T05:12:00Z,28.4330,-82.6670,15.83,1111122 
COMPS,ioos:station:USF.COMPS:ARP:1,2014-12-01T05:18:00Z,28.4330,-82.6670,15.78,1111122 
COMPS,ioos:station:USF.COMPS:ARP:1,2014-12-01T05:24:00Z,28.4330,-82.6670,15.74,1111122 
COMPS,ioos:station:USF.COMPS:ARP:1,2014-12-01T05:30:00Z,28.4330,-82.6670,15.82,1111122 
COMPS,ioos:station:USF.COMPS:ARP:1,2014-12-01T05:36:00Z,28.4330,-82.6670,15.86,1111122 
COMPS,ioos:station:USF.COMPS:ARP:1,2014-12-01T05:42:00Z,28.4330,-82.6670,15.86,1111122 
COMPS,ioos:station:USF.COMPS:ARP:1,2014-12-01T05:48:00Z,28.4330,-82.6670,15.91,1111122 
COMPS,ioos:station:USF.COMPS:ARP:1,2014-12-01T05:54:00Z,28.4330,-82.6670,16.0,1111122 
COMPS,ioos:station:USF.COMPS:ARP:1,2014-12-01T06:00:00Z,28.4330,-82.6670,15.97,1111122 
COMPS,ioos:station:USF.COMPS:ARP:1,2014-12-01T06:06:00Z,28.4330,-82.6670,15.97,1111122 
COMPS,ioos:station:USF.COMPS:ARP:1,2014-12-01T06:12:00Z,28.4330,-82.6670,15.97,1111122 
COMPS,ioos:station:USF.COMPS:ARP:1,2014-12-01T06:18:00Z,28.4330,-82.6670,15.92,1111122 
COMPS,ioos:station:USF.COMPS:ARP:1,2014-12-01T06:24:00Z,28.4330,-82.6670,15.81,1111122 
COMPS,ioos:station:USF.COMPS:ARP:1,2014-12-01T06:30:00Z,28.4330,-82.6670,15.71,1111122 
COMPS,ioos:station:USF.COMPS:ARP:1,2014-12-01T06:36:00Z,28.4330,-82.6670,15.7,1111122 
COMPS,ioos:station:USF.COMPS:ARP:1,2014-12-01T06:42:00Z,28.4330,-82.6670,15.67,1111122 
COMPS,ioos:station:USF.COMPS:ARP:1,2014-12-01T06:48:00Z,28.4330,-82.6670,15.58,1111122 
COMPS,ioos:station:USF.COMPS:ARP:1,2014-12-01T06:54:00Z,28.4330,-82.6670,15.59,1111122 
COMPS,ioos:station:USF.COMPS:ARP:1,2014-12-01T07:00:00Z,28.4330,-82.6670,15.56,1111122 
COMPS,ioos:station:USF.COMPS:ARP:1,2014-12-01T07:06:00Z,28.4330,-82.6670,15.53,1111122 
COMPS,ioos:station:USF.COMPS:ARP:1,2014-12-01T07:12:00Z,28.4330,-82.6670,15.55,1111122 
COMPS,ioos:station:USF.COMPS:ARP:1,2014-12-01T07:18:00Z,28.4330,-82.6670,15.67,1111122 
COMPS,ioos:station:USF.COMPS:ARP:1,2014-12-01T07:24:00Z,28.4330,-82.6670,15.78,1111122 
COMPS,ioos:station:USF.COMPS:ARP:1,2014-12-01T07:30:00Z,28.4330,-82.6670,15.76,1111122 
COMPS,ioos:station:USF.COMPS:ARP:1,2014-12-01T07:36:00Z,28.4330,-82.6670,15.81,1111122 
COMPS,ioos:station:USF.COMPS:ARP:1,2014-12-01T07:42:00Z,28.4330,-82.6670,15.83,1111122 
COMPS,ioos:station:USF.COMPS:ARP:1,2014-12-01T07:48:00Z,28.4330,-82.6670,15.84,1111122 
COMPS,ioos:station:USF.COMPS:ARP:1,2014-12-01T07:54:00Z,28.4330,-82.6670,15.87,1111122 
COMPS,ioos:station:USF.COMPS:ARP:1,2014-12-01T08:00:00Z,28.4330,-82.6670,15.84,1111122 
COMPS,ioos:station:USF.COMPS:ARP:1,2014-12-01T08:06:00Z,28.4330,-82.6670,15.79,1111122 
COMPS,ioos:station:USF.COMPS:ARP:1,2014-12-01T08:12:00Z,28.4330,-82.6670,15.71,1111122 
COMPS,ioos:station:USF.COMPS:ARP:1,2014-12-01T08:18:00Z,28.4330,-82.6670,15.71,1111122 
COMPS,ioos:station:USF.COMPS:ARP:1,2014-12-01T08:24:00Z,28.4330,-82.6670,15.71,1111122 
COMPS,ioos:station:USF.COMPS:ARP:1,2014-12-01T08:30:00Z,28.4330,-82.6670,15.71,1111122 
COMPS,ioos:station:USF.COMPS:ARP:1,2014-12-01T08:36:00Z,28.4330,-82.6670,15.67,1111122 
COMPS,ioos:station:USF.COMPS:ARP:1,2014-12-01T08:42:00Z,28.4330,-82.6670,15.6,1111122 
COMPS,ioos:station:USF.COMPS:ARP:1,2014-12-01T08:48:00Z,28.4330,-82.6670,15.56,1111122 
COMPS,ioos:station:USF.COMPS:ARP:1,2014-12-01T08:54:00Z,28.4330,-82.6670,15.48,1111122 
COMPS,ioos:station:USF.COMPS:ARP:1,2014-12-01T09:00:00Z,28.4330,-82.6670,15.35,1111122 
COMPS,ioos:station:USF.COMPS:ARP:1,2014-12-01T09:06:00Z,28.4330,-82.6670,15.24,1111122 
COMPS,ioos:station:USF.COMPS:ARP:1,2014-12-01T09:12:00Z,28.4330,-82.6670,15.17,1111122 
COMPS,ioos:station:USF.COMPS:ARP:1,2014-12-01T09:18:00Z,28.4330,-82.6670,15.16,1111122 
COMPS,ioos:station:USF.COMPS:ARP:1,2014-12-01T09:24:00Z,28.4330,-82.6670,15.16,1111122 
COMPS,ioos:station:USF.COMPS:ARP:1,2014-12-01T09:30:00Z,28.4330,-82.6670,15.16,1111122 
COMPS,ioos:station:USF.COMPS:ARP:1,2014-12-01T09:36:00Z,28.4330,-82.6670,15.2,1111122 
COMPS,ioos:station:USF.COMPS:ARP:1,2014-12-01T09:42:00Z,28.4330,-82.6670,15.21,1111122 
COMPS,ioos:station:USF.COMPS:ARP:1,2014-12-01T09:48:00Z,28.4330,-82.6670,15.22,1111122 
COMPS,ioos:station:USF.COMPS:ARP:1,2014-12-01T09:54:00Z,28.4330,-82.6670,15.29,1111122 
COMPS,ioos:station:USF.COMPS:ARP:1,2014-12-01T10:00:00Z,28.4330,-82.6670,15.11,1111122 
COMPS,ioos:station:USF.COMPS:ARP:1,2014-12-01T10:06:00Z,28.4330,-82.6670,15.02,1111122 
COMPS,ioos:station:USF.COMPS:ARP:1,2014-12-01T10:12:00Z,28.4330,-82.6670,14.94,1111122 
COMPS,ioos:station:USF.COMPS:ARP:1,2014-12-01T10:18:00Z,28.4330,-82.6670,14.89,1111122 
COMPS,ioos:station:USF.COMPS:ARP:1,2014-12-01T10:24:00Z,28.4330,-82.6670,14.85,1111122 
COMPS,ioos:station:USF.COMPS:ARP:1,2014-12-01T10:30:00Z,28.4330,-82.6670,14.71,1111122 
COMPS,ioos:station:USF.COMPS:ARP:1,2014-12-01T10:36:00Z,28.4330,-82.6670,14.55,1111122 
COMPS,ioos:station:USF.COMPS:ARP:1,2014-12-01T10:42:00Z,28.4330,-82.6670,14.48,1111122 
COMPS,ioos:station:USF.COMPS:ARP:1,2014-12-01T10:48:00Z,28.4330,-82.6670,14.48,1111122 
COMPS,ioos:station:USF.COMPS:ARP:1,2014-12-01T10:54:00Z,28.4330,-82.6670,14.58,1111122 
COMPS,ioos:station:USF.COMPS:ARP:1,2014-12-01T11:00:00Z,28.4330,-82.6670,14.61,1111122 
COMPS,ioos:station:USF.COMPS:ARP:1,2014-12-01T11:06:00Z,28.4330,-82.6670,14.7,1111122 
COMPS,ioos:station:USF.COMPS:ARP:1,2014-12-01T11:12:00Z,28.4330,-82.6670,14.79,1111122 
COMPS,ioos:station:USF.COMPS:ARP:1,2014-12-01T11:18:00Z,28.4330,-82.6670,14.79,1111122 
COMPS,ioos:station:USF.COMPS:ARP:1,2014-12-01T11:24:00Z,28.4330,-82.6670,14.75,1111122 
COMPS,ioos:station:USF.COMPS:ARP:1,2014-12-01T11:30:00Z,28.4330,-82.6670,14.65,1111122 
COMPS,ioos:station:USF.COMPS:ARP:1,2014-12-01T11:36:00Z,28.4330,-82.6670,14.6,1111122 
COMPS,ioos:station:USF.COMPS:ARP:1,2014-12-01T11:42:00Z,28.4330,-82.6670,14.62,1111122 
COMPS,ioos:station:USF.COMPS:ARP:1,2014-12-01T11:48:00Z,28.4330,-82.6670,14.67,1111122 
COMPS,ioos:station:USF.COMPS:ARP:1,2014-12-01T11:54:00Z,28.4330,-82.6670,14.78,1111122 
COMPS,ioos:station:USF.COMPS:ARP:1,2014-12-01T12:00:00Z,28.4330,-82.6670,14.76,1111122 
COMPS,ioos:station:USF.COMPS:ARP:1,2014-12-01T12:06:00Z,28.4330,-82.6670,14.78,1111122 
COMPS,ioos:station:USF.COMPS:ARP:1,2014-12-01T12:12:00Z,28.4330,-82.6670,14.78,1111122 
COMPS,ioos:station:USF.COMPS:ARP:1,2014-12-01T12:18:00Z,28.4330,-82.6670,14.79,1111122 
COMPS,ioos:station:USF.COMPS:ARP:1,2014-12-01T12:24:00Z,28.4330,-82.6670,14.84,1111122 
COMPS,ioos:station:USF.COMPS:ARP:1,2014-12-01T12:30:00Z,28.4330,-82.6670,14.91,1111122 
COMPS,ioos:station:USF.COMPS:ARP:1,2014-12-01T12:36:00Z,28.4330,-82.6670,15.0,1111122 
COMPS,ioos:station:USF.COMPS:ARP:1,2014-12-01T12:42:00Z,28.4330,-82.6670,15.04,1111122 
COMPS,ioos:station:USF.COMPS:ARP:1,2014-12-01T12:48:00Z,28.4330,-82.6670,15.11,1111122 
COMPS,ioos:station:USF.COMPS:ARP:1,2014-12-01T12:54:00Z,28.4330,-82.6670,15.35,1111122 
COMPS,ioos:station:USF.COMPS:ARP:1,2014-12-01T13:00:00Z,28.4330,-82.6670,15.53,1111122 
COMPS,ioos:station:USF.COMPS:ARP:1,2014-12-01T13:06:00Z,28.4330,-82.6670,15.69,1111122 
COMPS,ioos:station:USF.COMPS:ARP:1,2014-12-01T13:12:00Z,28.4330,-82.6670,15.83,1111122 
COMPS,ioos:station:USF.COMPS:ARP:1,2014-12-01T13:18:00Z,28.4330,-82.6670,16.01,1111122 
COMPS,ioos:station:USF.COMPS:ARP:1,2014-12-01T13:24:00Z,28.4330,-82.6670,16.24,1111122 
COMPS,ioos:station:USF.COMPS:ARP:1,2014-12-01T13:30:00Z,28.4330,-82.6670,16.5,1111122 
COMPS,ioos:station:USF.COMPS:ARP:1,2014-12-01T13:36:00Z,28.4330,-82.6670,16.81,1111122 
COMPS,ioos:station:USF.COMPS:ARP:1,2014-12-01T13:42:00Z,28.4330,-82.6670,17.08,1111122 
COMPS,ioos:station:USF.COMPS:ARP:1,2014-12-01T13:48:00Z,28.4330,-82.6670,17.4,1111122 
COMPS,ioos:station:USF.COMPS:ARP:1,2014-12-01T13:54:00Z,28.4330,-82.6670,17.83,1111122 
COMPS,ioos:station:USF.COMPS:ARP:1,2014-12-01T14:00:00Z,28.4330,-82.6670,18.2,1111122 
COMPS,ioos:station:USF.COMPS:ARP:1,2014-12-01T14:06:00Z,28.4330,-82.6670,18.62,1111122 
COMPS,ioos:station:USF.COMPS:ARP:1,2014-12-01T14:12:00Z,28.4330,-82.6670,19.0,1111122 
COMPS,ioos:station:USF.COMPS:ARP:1,2014-12-01T14:18:00Z,28.4330,-82.6670,19.35,1111122 
COMPS,ioos:station:USF.COMPS:ARP:1,2014-12-01T14:24:00Z,28.4330,-82.6670,19.73,1111122 
COMPS,ioos:station:USF.COMPS:ARP:1,2014-12-01T14:30:00Z,28.4330,-82.6670,20.0,1111122 
COMPS,ioos:station:USF.COMPS:ARP:1,2014-12-01T14:36:00Z,28.4330,-82.6670,20.4,1111122 
COMPS,ioos:station:USF.COMPS:ARP:1,2014-12-01T14:42:00Z,28.4330,-82.6670,20.76,1111122 
COMPS,ioos:station:USF.COMPS:ARP:1,2014-12-01T14:48:00Z,28.4330,-82.6670,21.04,1111122 
COMPS,ioos:station:USF.COMPS:ARP:1,2014-12-01T14:54:00Z,28.4330,-82.6670,21.37,1111122 
COMPS,ioos:station:USF.COMPS:ARP:1,2014-12-01T15:00:00Z,28.4330,-82.6670,21.54,1111122 
COMPS,ioos:station:USF.COMPS:ARP:1,2014-12-01T15:06:00Z,28.4330,-82.6670,21.79,1111122 
COMPS,ioos:station:USF.COMPS:ARP:1,2014-12-01T15:12:00Z,28.4330,-82.6670,21.95,1111122 
COMPS,ioos:station:USF.COMPS:ARP:1,2014-12-01T15:18:00Z,28.4330,-82.6670,22.27,1111122 
COMPS,ioos:station:USF.COMPS:ARP:1,2014-12-01T15:24:00Z,28.4330,-82.6670,22.58,1111122 
COMPS,ioos:station:USF.COMPS:ARP:1,2014-12-01T15:30:00Z,28.4330,-82.6670,22.8,1111122 
COMPS,ioos:station:USF.COMPS:ARP:1,2014-12-01T15:36:00Z,28.4330,-82.6670,23.1,1111122 
COMPS,ioos:station:USF.COMPS:ARP:1,2014-12-01T15:42:00Z,28.4330,-82.6670,23.37,1111122 
COMPS,ioos:station:USF.COMPS:ARP:1,2014-12-01T15:48:00Z,28.4330,-82.6670,23.63,1111122 
COMPS,ioos:station:USF.COMPS:ARP:1,2014-12-01T15:54:00Z,28.4330,-82.6670,23.62,1111122 
COMPS,ioos:station:USF.COMPS:ARP:1,2014-12-01T16:00:00Z,28.4330,-82.6670,23.8,1111122 
COMPS,ioos:station:USF.COMPS:ARP:1,2014-12-01T16:06:00Z,28.4330,-82.6670,23.89,1111122 
COMPS,ioos:station:USF.COMPS:ARP:1,2014-12-01T16:12:00Z,28.4330,-82.6670,24.0,1111122 
COMPS,ioos:station:USF.COMPS:ARP:1,2014-12-01T16:18:00Z,28.4330,-82.6670,24.03,1111122 
COMPS,ioos:station:USF.COMPS:ARP:1,2014-12-01T16:24:00Z,28.4330,-82.6670,24.08,1111122 
COMPS,ioos:station:USF.COMPS:ARP:1,2014-12-01T16:30:00Z,28.4330,-82.6670,24.09,1111122 
COMPS,ioos:station:USF.COMPS:ARP:1,2014-12-01T16:36:00Z,28.4330,-82.6670,24.01,1111122 
COMPS,ioos:station:USF.COMPS:ARP:1,2014-12-01T16:42:00Z,28.4330,-82.6670,24.34,1111122 
COMPS,ioos:station:USF.COMPS:ARP:1,2014-12-01T16:48:00Z,28.4330,-82.6670,24.43,1111122 
COMPS,ioos:station:USF.COMPS:ARP:1,2014-12-01T16:54:00Z,28.4330,-82.6670,24.53,1111122 
COMPS,ioos:station:USF.COMPS:ARP:1,2014-12-01T17:00:00Z,28.4330,-82.6670,24.57,1111122 
COMPS,ioos:station:USF.COMPS:ARP:1,2014-12-01T17:06:00Z,28.4330,-82.6670,24.77,1111122 
COMPS,ioos:station:USF.COMPS:ARP:1,2014-12-01T17:12:00Z,28.4330,-82.6670,24.8,1111122 
COMPS,ioos:station:USF.COMPS:ARP:1,2014-12-01T17:18:00Z,28.4330,-82.6670,24.81,1111122 
COMPS,ioos:station:USF.COMPS:ARP:1,2014-12-01T17:24:00Z,28.4330,-82.6670,24.67,1111122 
COMPS,ioos:station:USF.COMPS:ARP:1,2014-12-01T17:30:00Z,28.4330,-82.6670,24.72,1111122 
COMPS,ioos:station:USF.COMPS:ARP:1,2014-12-01T17:36:00Z,28.4330,-82.6670,24.86,1111122 
COMPS,ioos:station:USF.COMPS:ARP:1,2014-12-01T17:42:00Z,28.4330,-82.6670,24.89,1111122 
COMPS,ioos:station:USF.COMPS:ARP:1,2014-12-01T17:48:00Z,28.4330,-82.6670,24.76,1111122 
COMPS,ioos:station:USF.COMPS:ARP:1,2014-12-01T17:54:00Z,28.4330,-82.6670,24.74,1111122 
COMPS,ioos:station:USF.COMPS:ARP:1,2014-12-01T18:00:00Z,28.4330,-82.6670,24.72,1111122 
COMPS,ioos:station:USF.COMPS:ARP:1,2014-12-01T18:06:00Z,28.4330,-82.6670,24.47,1111122 
COMPS,ioos:station:USF.COMPS:ARP:1,2014-12-01T18:12:00Z,28.4330,-82.6670,24.52,1111122 
COMPS,ioos:station:USF.COMPS:ARP:1,2014-12-01T18:18:00Z,28.4330,-82.6670,24.45,1111122 
COMPS,ioos:station:USF.COMPS:ARP:1,2014-12-01T18:24:00Z,28.4330,-82.6670,24.41,1111122 
COMPS,ioos:station:USF.COMPS:ARP:1,2014-12-01T18:30:00Z,28.4330,-82.6670,24.46,1111122 
COMPS,ioos:station:USF.COMPS:ARP:1,2014-12-01T18:36:00Z,28.4330,-82.6670,24.44,1111122 
COMPS,ioos:station:USF.COMPS:ARP:1,2014-12-01T18:42:00Z,28.4330,-82.6670,24.17,1111122 
COMPS,ioos:station:USF.COMPS:ARP:1,2014-12-01T18:48:00Z,28.4330,-82.6670,23.81,1111122 
COMPS,ioos:station:USF.COMPS:ARP:1,2014-12-01T18:54:00Z,28.4330,-82.6670,23.34,1111122 
COMPS,ioos:station:USF.COMPS:ARP:1,2014-12-01T19:00:00Z,28.4330,-82.6670,22.67,1111122 
COMPS,ioos:station:USF.COMPS:ARP:1,2014-12-01T19:06:00Z,28.4330,-82.6670,22.04,1111122 
COMPS,ioos:station:USF.COMPS:ARP:1,2014-12-01T19:12:00Z,28.4330,-82.6670,21.82,1111122 
COMPS,ioos:station:USF.COMPS:ARP:1,2014-12-01T19:18:00Z,28.4330,-82.6670,21.93,1111122 
COMPS,ioos:station:USF.COMPS:ARP:1,2014-12-01T19:24:00Z,28.4330,-82.6670,21.97,1111122 
COMPS,ioos:station:USF.COMPS:ARP:1,2014-12-01T19:30:00Z,28.4330,-82.6670,22.11,1111122 
COMPS,ioos:station:USF.COMPS:ARP:1,2014-12-01T19:36:00Z,28.4330,-82.6670,22.4,1111122 
COMPS,ioos:station:USF.COMPS:ARP:1,2014-12-01T19:42:00Z,28.4330,-82.6670,22.69,1111122 
COMPS,ioos:station:USF.COMPS:ARP:1,2014-12-01T19:48:00Z,28.4330,-82.6670,22.81,1111122 
COMPS,ioos:station:USF.COMPS:ARP:1,2014-12-01T19:54:00Z,28.4330,-82.6670,22.87,1111122 
COMPS,ioos:station:USF.COMPS:ARP:1,2014-12-01T20:00:00Z,28.4330,-82.6670,23.01,1111122 
COMPS,ioos:station:USF.COMPS:ARP:1,2014-12-01T20:06:00Z,28.4330,-82.6670,23.07,1111122 
COMPS,ioos:station:USF.COMPS:ARP:1,2014-12-01T20:12:00Z,28.4330,-82.6670,23.31,1111122 
COMPS,ioos:station:USF.COMPS:ARP:1,2014-12-01T20:18:00Z,28.4330,-82.6670,23.4,1111122 
COMPS,ioos:station:USF.COMPS:ARP:1,2014-12-01T20:24:00Z,28.4330,-82.6670,23.39,1111122 
COMPS,ioos:station:USF.COMPS:ARP:1,2014-12-01T20:30:00Z,28.4330,-82.6670,23.27,1111122 
COMPS,ioos:station:USF.COMPS:ARP:1,2014-12-01T20:36:00Z,28.4330,-82.6670,23.41,1111122 
COMPS,ioos:station:USF.COMPS:ARP:1,2014-12-01T20:42:00Z,28.4330,-82.6670,23.59,1111122 
COMPS,ioos:station:USF.COMPS:ARP:1,2014-12-01T20:48:00Z,28.4330,-82.6670,23.7,1111122 
COMPS,ioos:station:USF.COMPS:ARP:1,2014-12-01T20:54:00Z,28.4330,-82.6670,23.92,1111122 
COMPS,ioos:station:USF.COMPS:ARP:1,2014-12-01T21:00:00Z,28.4330,-82.6670,23.88,1111122 
COMPS,ioos:station:USF.COMPS:ARP:1,2014-12-01T21:06:00Z,28.4330,-82.6670,23.82,1111122 
COMPS,ioos:station:USF.COMPS:ARP:1,2014-12-01T21:12:00Z,28.4330,-82.6670,23.82,1111122 
COMPS,ioos:station:USF.COMPS:ARP:1,2014-12-01T21:18:00Z,28.4330,-82.6670,23.91,1111122 
COMPS,ioos:station:USF.COMPS:ARP:1,2014-12-01T21:24:00Z,28.4330,-82.6670,23.84,1111122 
COMPS,ioos:station:USF.COMPS:ARP:1,2014-12-01T21:30:00Z,28.4330,-82.6670,23.86,1111122 
COMPS,ioos:station:USF.COMPS:ARP:1,2014-12-01T21:36:00Z,28.4330,-82.6670,23.9,1111122 
COMPS,ioos:station:USF.COMPS:ARP:1,2014-12-01T21:42:00Z,28.4330,-82.6670,23.68,1111122 
COMPS,ioos:station:USF.COMPS:ARP:1,2014-12-01T21:48:00Z,28.4330,-82.6670,23.17,1111122 
COMPS,ioos:station:USF.COMPS:ARP:1,2014-12-01T21:54:00Z,28.4330,-82.6670,22.24,1111122 
COMPS,ioos:station:USF.COMPS:ARP:1,2014-12-01T22:00:00Z,28.4330,-82.6670,21.78,1111122 
COMPS,ioos:station:USF.COMPS:ARP:1,2014-12-01T22:06:00Z,28.4330,-82.6670,21.6,1111122 
COMPS,ioos:station:USF.COMPS:ARP:1,2014-12-01T22:12:00Z,28.4330,-82.6670,21.63,1111122 
COMPS,ioos:station:USF.COMPS:ARP:1,2014-12-01T22:18:00Z,28.4330,-82.6670,21.58,1111122 
COMPS,ioos:station:USF.COMPS:ARP:1,2014-12-01T22:24:00Z,28.4330,-82.6670,21.1,1111122 
COMPS,ioos:station:USF.COMPS:ARP:1,2014-12-01T22:30:00Z,28.4330,-82.6670,20.55,1111122 
COMPS,ioos:station:USF.COMPS:ARP:1,2014-12-01T22:36:00Z,28.4330,-82.6670,20.51,1111122 
COMPS,ioos:station:USF.COMPS:ARP:1,2014-12-01T22:42:00Z,28.4330,-82.6670,20.34,1111122 
COMPS,ioos:station:USF.COMPS:ARP:1,2014-12-01T22:48:00Z,28.4330,-82.6670,20.08,1111122 
COMPS,ioos:station:USF.COMPS:ARP:1,2014-12-01T22:54:00Z,28.4330,-82.6670,20.12,1111122 
COMPS,ioos:station:USF.COMPS:ARP:1,2014-12-01T23:00:00Z,28.4330,-82.6670,20.02,1111122 
COMPS,ioos:station:USF.COMPS:ARP:1,2014-12-01T23:06:00Z,28.4330,-82.6670,20.01,1111122 
COMPS,ioos:station:USF.COMPS:ARP:1,2014-12-01T23:12:00Z,28.4330,-82.6670,19.95,1111122 
COMPS,ioos:station:USF.COMPS:ARP:1,2014-12-01T23:18:00Z,28.4330,-82.6670,19.92,1111122 
COMPS,ioos:station:USF.COMPS:ARP:1,2014-12-01T23:24:00Z,28.4330,-82.6670,19.9,1111122 
COMPS,ioos:station:USF.COMPS:ARP:1,2014-12-01T23:30:00Z,28.4330,-82.6670,19.89,1111122 
COMPS,ioos:station:USF.COMPS:ARP:1,2014-12-01T23:36:00Z,28.4330,-82.6670,19.89,1111122 
COMPS,ioos:station:USF.COMPS:ARP:1,2014-12-01T23:42:00Z,28.4330,-82.6670,19.89,1111122 
COMPS,ioos:station:USF.COMPS:ARP:1,2014-12-01T23:48:00Z,28.4330,-82.6670,19.88,1111122 
COMPS,ioos:station:USF.COMPS:ARP:1,2014-12-01T23:54:00Z,28.4330,-82.6670,19.93,1111122 
COMPS,ioos:station:USF.COMPS:ARP:1,2014-12-02T00:00:00Z,28.4330,-82.6670,19.85,1111122 
COMPS,ioos:station:USF.COMPS:ARP:1,2014-12-02T00:06:00Z,28.4330,-82.6670,19.77,1111122 
COMPS,ioos:station:USF.COMPS:ARP:1,2014-12-02T00:12:00Z,28.4330,-82.6670,19.75,1111122 
COMPS,ioos:station:USF.COMPS:ARP:1,2014-12-02T00:18:00Z,28.4330,-82.6670,19.75,1111122 
COMPS,ioos:station:USF.COMPS:ARP:1,2014-12-02T00:24:00Z,28.4330,-82.6670,19.75,1111122 
COMPS,ioos:station:USF.COMPS:ARP:1,2014-12-02T00:30:00Z,28.4330,-82.6670,19.75,1111122 
COMPS,ioos:station:USF.COMPS:ARP:1,2014-12-02T00:36:00Z,28.4330,-82.6670,19.75,1111122 
COMPS,ioos:station:USF.COMPS:ARP:1,2014-12-02T00:42:00Z,28.4330,-82.6670,19.75,1111122 
COMPS,ioos:station:USF.COMPS:ARP:1,2014-12-02T00:48:00Z,28.4330,-82.6670,19.75,1111122 
COMPS,ioos:station:USF.COMPS:ARP:1,2014-12-02T00:54:00Z,28.4330,-82.6670,19.91,1111122 
COMPS,ioos:station:USF.COMPS:ARP:1,2014-12-02T01:00:00Z,28.4330,-82.6670,19.89,1111122 
COMPS,ioos:station:USF.COMPS:ARP:1,2014-12-02T01:06:00Z,28.4330,-82.6670,19.89,1111122 
COMPS,ioos:station:USF.COMPS:ARP:1,2014-12-02T01:12:00Z,28.4330,-82.6670,19.93,1111122 
COMPS,ioos:station:USF.COMPS:ARP:1,2014-12-02T01:18:00Z,28.4330,-82.6670,20.03,1111122 
COMPS,ioos:station:USF.COMPS:ARP:1,2014-12-02T01:24:00Z,28.4330,-82.6670,19.97,1111122 
COMPS,ioos:station:USF.COMPS:ARP:1,2014-12-02T01:30:00Z,28.4330,-82.6670,19.97,1111122 
COMPS,ioos:station:USF.COMPS:ARP:1,2014-12-02T01:36:00Z,28.4330,-82.6670,20.03,1111122 
COMPS,ioos:station:USF.COMPS:ARP:1,2014-12-02T01:42:00Z,28.4330,-82.6670,20.08,1111122 
COMPS,ioos:station:USF.COMPS:ARP:1,2014-12-02T01:48:00Z,28.4330,-82.6670,20.09,1111122 
COMPS,ioos:station:USF.COMPS:ARP:1,2014-12-02T01:54:00Z,28.4330,-82.6670,20.23,1111122 
COMPS,ioos:station:USF.COMPS:ARP:1,2014-12-02T02:00:00Z,28.4330,-82.6670,20.25,1111122 
COMPS,ioos:station:USF.COMPS:ARP:1,2014-12-02T02:06:00Z,28.4330,-82.6670,20.2,1111122 
COMPS,ioos:station:USF.COMPS:ARP:1,2014-12-02T02:12:00Z,28.4330,-82.6670,20.18,1111122 
COMPS,ioos:station:USF.COMPS:ARP:1,2014-12-02T02:18:00Z,28.4330,-82.6670,20.05,1111122 
COMPS,ioos:station:USF.COMPS:ARP:1,2014-12-02T02:24:00Z,28.4330,-82.6670,20.0,1111122 
COMPS,ioos:station:USF.COMPS:ARP:1,2014-12-02T02:30:00Z,28.4330,-82.6670,20.09,1111122 
COMPS,ioos:station:USF.COMPS:ARP:1,2014-12-02T02:36:00Z,28.4330,-82.6670,20.14,1111122 
COMPS,ioos:station:USF.COMPS:ARP:1,2014-12-02T02:42:00Z,28.4330,-82.6670,20.15,1111122 
COMPS,ioos:station:USF.COMPS:ARP:1,2014-12-02T02:48:00Z,28.4330,-82.6670,20.08,1111122 
COMPS,ioos:station:USF.COMPS:ARP:1,2014-12-02T02:54:00Z,28.4330,-82.6670,20.1,1111122 
COMPS,ioos:station:USF.COMPS:ARP:1,2014-12-02T03:00:00Z,28.4330,-82.6670,20.0,1111122 
COMPS,ioos:station:USF.COMPS:ARP:1,2014-12-02T03:06:00Z,28.4330,-82.6670,19.91,1111122 